Content
SEND FEEDBACK

Daily
Averages
Monthly
Summary
United States of America

GRAFTON, ILLINOIS


Home > North America > United States > Illinois
Elevation: 400 feet     Latitude: 38 58N     Longitude: 090 26W

WEATHER
 
SELECT A DAY
Number of Records: 166,592;   Date Range: 10/8/98 - 7/26/14
 
SHARE

PRINT THIS DATA

[ ← Previous Day ]
WEATHER ALMANAC - FEBRUARY 19, 2013
[ Next Day → ]
[ °C ]   °F
Weather ElementAverageHighLow
Temperature26.7 °F30 °F (1:54 am)23 °F (10:54 pm)
Dewpoint14.2 °F19.9 °F (1:54 am)10 °F (8:54 pm)
Humidity59.7 %69 % (4:54 am)49 % (2:54 pm)
Barometer30.13 in30.32 in (10:54 pm)29.94 in (1:54 am)
Wind Speed17.3 mph24.2 mph (4:54 am)
Wind Gust34.5 mph (1:54 am)
Weather ElementAverage
Visibility10 mi
Wind DirectionWNW (290.4 °)

Weather ElementTotal
Precipitation---
Heating Degree Days38.5 (Base 65)
Averaged from 25 records on February 19, 2013
WEATHER CONDITIONS BREAKOUT
WIND DIRECTION BREAKOUT
WEATHER BY HOUR - FEBRUARY 19, 2013
[ °C ]   °F
Local TimeTemperatureDewpointHumidityBarometerVisibilityWind DirectionWind SpeedGust SpeedPrecipitationEventsConditions
1:54 AM30.0 °F19.9 °F66 %29.94 in10.0 miWNW (290°)21.9 mph34.5 mphClear
2:54 AM28.0 °F18.0 °F66 %29.96 in10.0 miWest (280°)19.6 mph29.9 mphPartly Cloudy
3:54 AM28.0 °F18.0 °F66 %29.98 in10.0 miWest (280°)20.7 mph28.8 mphClear
4:54 AM27.0 °F18.0 °F69 %29.99 in10.0 miWest (280°)24.2 mph29.9 mphScattered Clouds
5:54 AM26.1 °F17.1 °F69 %30.02 in10.0 miWest (280°)11.5 mphScattered Clouds
6:06 AM26.6 °F17.6 °F69 %30.02 in10.0 miWest (280°)16.1 mph24.2 mphMostly Cloudy
6:46 AM24.8 °F14.0 °F64 %30.04 in10.0 miWNW (290°)20.7 mph27.6 mphScattered Clouds
6:54 AM24.1 °F12.9 °F62 %30.05 in10.0 miWNW (300°)12.7 mph31.1 mphPartly Cloudy
7:54 AM25.0 °F14.0 °F63 %30.09 in10.0 miWNW (300°)20.7 mph26.5 mphPartly Cloudy
8:12 AM24.8 °F14.0 °F64 %30.08 in10.0 miWNW (290°)16.1 mph27.6 mphMostly Cloudy
8:44 AM24.8 °F14.0 °F64 %30.10 in10.0 miWNW (300°)20.7 mph27.6 mphOvercast
8:54 AM25.0 °F14.0 °F63 %30.11 in10.0 miWNW (290°)18.4 mph28.8 mphOvercast
9:24 AM26.6 °F12.2 °F55 %30.12 in10.0 miNW (310°)20.7 mph29.9 mphMostly Cloudy
9:54 AM27.0 °F14.0 °F58 %30.13 in10.0 miWNW (290°)17.3 mph26.5 mphScattered Clouds
10:54 AM26.1 °F12.9 °F58 %30.17 in10.0 miWNW (300°)19.6 mph25.3 mphMostly Cloudy
12:54 PM28.9 °F14.0 °F54 %30.18 in10.0 miWest (280°)24.2 mph29.9 mphScattered Clouds
1:54 PM28.9 °F14.0 °F54 %30.19 in10.0 miWNW (300°)20.7 mphClear
2:54 PM30.0 °F12.9 °F49 %30.20 in10.0 miWest (280°)19.6 mph27.6 mphClear
3:54 PM30.0 °F12.9 °F49 %30.22 in10.0 miWNW (290°)18.4 mph27.6 mphClear
4:54 PM30.0 °F12.9 °F49 %30.22 in10.0 miWNW (290°)21.9 mph28.8 mphClear
6:54 PM27.0 °F12.9 °F56 %30.25 in10.0 miWNW (290°)10.4 mphClear
7:54 PM26.1 °F12.0 °F55 %30.27 in10.0 miWNW (300°)10.4 mphClear
8:54 PM25.0 °F10.0 °F53 %30.29 in10.0 miNW (310°)8.1 mphClear
9:54 PM24.1 °F10.9 °F57 %30.30 in10.0 miWest (270°)8.1 mphClear
10:54 PM23.0 °F10.9 °F60 %30.32 in10.0 miWNW (290°)9.2 mphClear
Hourly data recorded from KSET, located miles away from Grafton, Illinois







STORIES FROM OUR PARTNERS